1517598000.52,19535,4.38,72060.3,-6.81,-7.53,-7.39,0,*58
1517598001.78,19536,4.38,72066.5,-6.85,-7.57,-7.57,0,*53
1517598003.0,19537,4.38,72068.3,-6.85,-7.53,-7.57,0,*56
1517598004.19,19538,4.31,72068.3,-6.85,-7.53,-7.53,0,*5D
1517598005.41,19539,4.38,72060.5,-6.85,-7.57,-7.53,0,*58
1517598006.67,19540,4.38,72060.0,-6.85,-7.57,-7.57,0,*52
1517598007.89,19541,4.38,72070.5,-6.85,-7.53,-7.57,0,*57
1517598009.14,19542,4.38,72062.5,-6.85,-7.57,-7.57,0,*50
1517598010.36,19543,4.38,72060.8,-6.85,-7.53,-7.57,0,*55
1517598011.59,19544,4.38,72058.5,-6.81,-7.49,-7.57,0,*5D
1517598012.84,19545,4.38,72060.3,-6.85,-7.57,-7.57,0,*57
1517598014.06,19546,4.38,72066.5,-6.85,-7.57,-7.53,0,*50
1517598015.31,19547,4.38,72058.5,-6.85,-7.57,-7.57,0,*55
1517598016.57,19548,4.38,72058.5,-6.85,-7.57,-7.57,0,*5A
1517598017.82,19549,4.38,72070.3,-6.85,-7.57,-7.57,0,*5B
1517598019.04,19550,4.38,72040.3,-6.85,-7.53,-7.57,0,*57
1517598020.3,19551,4.38,72072.3,-6.85,-7.57,-7.57,0,*52
1517598021.52,19552,4.38,72064.3,-6.85,-7.53,-7.39,0,*5D
1517598022.71,19553,4.38,72046.8,-6.85,-7.53,-7.53,0,*50
1517598023.9,19554,4.38,72060.5,-6.81,-7.53,-7.53,0,*53
1517598025.13,19555,4.38,72066.5,-6.85,-7.53,-7.43,0,*57
1517598026.32,19556,4.38,72054.5,-6.85,-7.53,-7.53,0,*55
1517598027.54,19557,4.38,72050.5,-6.85,-7.53,-7.57,0,*50
1517598028.79,19558,4.38,72052.3,-6.81,-7.39,-7.43,0,*52
1517598030.03,19559,4.38,72072.3,-6.81,-7.39,-7.39,0,*5E
1517598031.23,19560,4.38,72026.3,-6.81,-7.49,-7.53,0,*5F
1517598032.42,19561,4.31,72002.8,-6.85,-7.53,-7.53,0,*51
1517598033.64,19562,4.38,72012.5,-6.85,-7.53,-7.43,0,*53
1517598034.83,19563,4.38,72016.8,-6.85,-7.53,-7.53,0,*53
1517598036.02,19564,4.38,72024.0,-6.85,-7.53,-7.53,0,*54
1517598037.22,19565,4.38,72006.5,-6.85,-7.53,-7.53,0,*55
1517598038.41,19566,4.38,72026.3,-6.85,-7.53,-7.53,0,*56
1517598039.66,19567,4.38,72034.0,-6.85,-7.57,-7.57,0,*57
1517598040.88,19568,4.38,72028.5,-6.85,-7.57,-7.53,0,*5C
1517598042.13,19569,4.31,72026.8,-6.85,-7.65,-7.57,0,*58
1517598043.32,19570,4.38,72054.3,-6.81,-7.49,-7.53,0,*5E
1517598044.61,19571,4.38,72030.3,-6.91,-7.61,-7.61,0,*55
1517598045.86,19572,4.38,72024.8,-6.85,-7.57,-7.57,0,*53
1517598047.11,19573,4.38,72054.0,-6.85,-7.57,-7.57,0,*52
1517598048.37,19574,4.38,72032.8,-6.85,-7.57,-7.57,0,*55
1517598049.56,19575,4.38,72034.8,-6.85,-7.49,-7.49,0,*54
1517598050.78,19576,4.38,72026.3,-6.85,-7.53,-7.57,0,*53
1517598052.0,19577,4.38,72036.0,-6.85,-7.57,-7.53,0,*52
1517598053.23,19578,4.38,72014.3,-6.85,-7.57,-7.53,0,*5D
1517598054.42,19579,4.38,72036.3,-6.85,-7.53,-7.53,0,*58
1517598055.64,19580,4.31,72046.0,-6.85,-7.53,-7.57,0,*5A
1517598056.86,19581,4.38,72046.3,-6.85,-7.53,-7.43,0,*5E
1517598058.09,19582,4.38,72046.3,-6.85,-7.53,-7.43,0,*5D
1517598059.31,19583,4.38,72062.0,-6.85,-7.53,-7.43,0,*5C
1517598060.51,19584,4.38,72068.5,-6.81,-7.53,-7.53,0,*5E
1517598061.79,19585,4.38,72068.5,-6.87,-7.57,-7.57,0,*59
1517598063.04,19586,4.38,72068.8,-6.85,-7.57,-7.57,0,*58
1517598064.27,19587,4.38,72064.8,-6.85,-7.53,-7.57,0,*5D
1517598065.52,19588,4.38,72078.8,-6.85,-7.57,-7.57,0,*56
1517598066.74,19589,4.38,72080.0,-6.81,-7.61,-7.53,0,*52
1517598067.99,19590,4.38,72078.0,-6.85,-7.65,-7.57,0,*5E
1517598069.21,19591,4.38,72076.8,-6.85,-7.53,-7.65,0,*5B
1517598070.5,19592,4.38,72074.0,-6.87,-7.57,-7.57,0,*5F
1517598071.69,19593,4.38,72084.3,-6.85,-7.53,-7.53,0,*5C
1517598072.94,19594,4.38,72082.3,-6.85,-7.57,-7.57,0,*5B
1517598074.19,19595,4.38,72076.5,-6.87,-7.53,-7.57,0,*5C
1517598075.44,19596,4.38,72072.3,-6.87,-7.57,-7.53,0,*5F
1517598076.7,19597,4.38,72068.0,-6.87,-7.57,-7.53,0,*5E
1517598077.95,19598,4.38,72060.8,-6.87,-7.53,-7.57,0,*51
1517598079.14,19599,4.38,72078.0,-6.85,-7.53,-7.53,0,*56
1517598080.42,19600,4.38,72084.8,-6.87,-7.57,-7.57,0,*57
1517598081.68,19601,4.38,72072.5,-6.87,-7.53,-7.57,0,*52
1517598082.93,19602,4.38,72044.5,-6.87,-7.57,-7.53,0,*51
1517598084.12,19603,4.38,72036.5,-6.85,-7.53,-7.53,0,*56
1517598085.34,19604,4.38,72034.5,-6.85,-7.53,-7.57,0,*55
1517598086.53,19605,4.38,72032.3,-6.85,-7.53,-7.53,0,*50
1517598087.79,19606,4.38,72042.0,-6.85,-7.57,-7.57,0,*53
1517598088.98,19607,4.38,72056.5,-6.85,-7.53,-7.53,0,*52
1517598090.23,19608,4.38,72042.3,-6.87,-7.53,-7.43,0,*5E
1517598091.48,19609,4.38,72034.5,-6.87,-7.53,-7.57,0,*5A
1517598092.74,19610,4.38,72050.0,-6.87,-7.57,-7.53,0,*52
1517598094.02,19611,4.38,72042.5,-6.87,-7.57,-7.57,0,*57
1517598095.3,19612,4.38,72052.5,-6.87,-7.65,-7.57,0,*55
1517598096.58,19613,4.38,72052.8,-6.87,-7.65,-7.65,0,*55
1517598097.86,19614,4.38,72048.5,-6.87,-7.65,-7.65,0,*52
1517598099.13,19615,4.38,72050.0,-6.87,-7.69,-7.57,0,*5E
1517598100.41,19616,4.38,72008.8,-6.87,-7.69,-7.65,0,*5C
1517598101.68,19617,4.38,72036.5,-6.87,-7.69,-7.65,0,*5D
1517598102.96,19618,4.38,72032.3,-6.87,-7.65,-7.65,0,*5E
1517598104.21,19619,4.38,72032.5,-6.85,-7.65,-7.57,0,*5C
1517598105.47,19620,4.38,72052.8,-6.85,-7.57,-7.57,0,*57
1517598106.71,19621,4.38,72062.0,-6.85,-7.65,-7.65,0,*56
1517598108.0,19622,4.38,72074.8,-6.87,-7.57,-7.65,0,*56
1517598109.27,19623,4.38,72082.0,-6.87,-7.69,-7.65,0,*5A
1517598110.55,19624,4.38,72076.5,-6.87,-7.65,-7.65,0,*51
1517598111.83,19625,4.38,72076.0,-6.87,-7.69,-7.65,0,*5C
1517598113.1,19626,4.38,72084.5,-6.87,-7.69,-7.57,0,*5E
1517598114.39,19627,4.31,72074.0,-6.87,-7.57,-7.57,0,*52
1517598115.67,19628,4.38,72066.3,-6.87,-7.57,-7.57,0,*5D
1517598116.92,19629,4.38,72030.8,-6.87,-7.65,-7.53,0,*59
1517598118.2,19630,4.38,72036.3,-6.87,-7.65,-7.65,0,*54
1517598119.47,19631,4.38,72040.5,-6.87,-7.69,-7.57,0,*58
1517598120.75,19632,4.38,72054.8,-6.87,-7.69,-7.65,0,*5A
1517598122.02,19633,4.38,72054.0,-6.87,-7.69,-7.69,0,*57
1517598123.3,19634,4.38,72052.5,-6.87,-7.65,-7.69,0,*5C
1517598124.54,19635,4.38,72054.3,-6.85,-7.69,-7.69,0,*53
1517598125.81,19636,4.38,72052.5,-6.87,-7.65,-7.69,0,*5E
1517598127.09,19637,4.38,72050.3,-6.87,-7.65,-7.65,0,*53
1517598128.37,19638,4.38,72048.3,-6.87,-7.65,-7.65,0,*5C
1517598129.65,19639,4.38,72038.5,-6.91,-7.73,-7.69,0,*51
1517598130.93,19640,4.38,72040.0,-6.87,-7.65,-7.69,0,*5F
1517598132.17,19641,4.38,72040.3,-6.85,-7.65,-7.69,0,*5C
1517598133.45,19642,4.38,72034.0,-6.87,-7.69,-7.69,0,*51
1517598134.72,19643,4.38,72038.0,-6.87,-7.69,-7.69,0,*50
1517598135.99,19644,4.38,72036.8,-6.87,-7.69,-7.69,0,*57
1517598137.27,19645,4.38,72038.0,-6.91,-7.73,-7.73,0,*51
1517598138.56,19646,4.38,72056.8,-6.91,-7.73,-7.73,0,*52
1517598139.83,19647,4.31,72056.0,-6.87,-7.69,-7.65,0,*58
1517598141.12,19648,4.38,72062.5,-6.91,-7.73,-7.73,0,*5C
1517598142.4,19649,4.38,72060.8,-6.91,-7.73,-7.73,0,*5D
1517598143.68,19650,4.38,72048.5,-6.87,-7.65,-7.65,0,*52
1517598144.97,19651,4.31,72036.8,-6.91,-7.73,-7.73,0,*54
1517598146.24,19652,4.31,72030.5,-6.87,-7.69,-7.65,0,*5C
1517598147.52,19653,4.38,72028.0,-6.91,-7.73,-7.69,0,*5D
1517598148.81,19654,4.38,72032.0,-6.91,-7.73,-7.73,0,*51
1517598150.09,19655,4.38,72032.3,-6.91,-7.73,-7.69,0,*5B
1517598151.36,19656,4.38,72032.8,-6.87,-7.69,-7.69,0,*54
1517598152.64,19657,4.38,72036.0,-6.91,-7.73,-7.69,0,*59
1517598153.92,19658,4.38,72036.8,-6.91,-7.73,-7.69,0,*56
1517598155.19,19659,4.38,72040.5,-6.91,-7.69,-7.73,0,*57
1517598156.47,19660,4.38,72050.3,-6.91,-7.73,-7.69,0,*5D
1517598157.75,19661,4.38,72056.3,-6.87,-7.69,-7.69,0,*50
1517598159.02,19662,4.38,72056.5,-6.91,-7.69,-7.69,0,*54
1517598160.3,19663,4.38,72066.5,-6.91,-7.73,-7.73,0,*55
1517598161.58,19664,4.38,72072.8,-6.87,-7.69,-7.73,0,*5E
1517598162.86,19665,4.38,72074.5,-6.91,-7.69,-7.73,0,*58
1517598164.14,19666,4.38,72080.3,-6.93,-7.73,-7.73,0,*52
1517598165.42,19667,4.38,72084.8,-6.91,-7.61,-7.73,0,*52
1517598166.69,19668,4.38,72098.5,-6.91,-7.61,-7.69,0,*56
1517598167.98,19669,4.38,72088.0,-6.87,-7.57,-7.57,0,*58
1517598169.26,19670,4.38,72050.0,-6.91,-7.61,-7.61,0,*57
1517598170.54,19671,4.38,72050.0,-6.91,-7.57,-7.57,0,*56
1517598171.82,19672,4.38,72062.8,-6.91,-7.61,-7.57,0,*50
1517598173.08,19673,4.38,72048.0,-6.87,-7.57,-7.53,0,*57
1517598174.36,19674,4.38,72052.3,-6.91,-7.73,-7.73,0,*53
1517598175.64,19675,4.31,72068.5,-6.91,-7.73,-7.73,0,*52
1517598176.92,19676,4.38,72076.8,-6.87,-7.69,-7.69,0,*56
1517598178.2,19677,4.38,72072.3,-6.91,-7.73,-7.73,0,*50
1517598179.48,19678,4.31,72070.8,-6.91,-7.73,-7.73,0,*5F
1517598180.76,19679,4.38,72066.8,-6.87,-7.65,-7.69,0,*55
1517598182.03,19680,4.38,72060.5,-6.91,-7.69,-7.69,0,*58
1517598183.32,19681,4.38,72050.0,-6.91,-7.57,-7.61,0,*5C
1517598184.6,19682,4.38,72028.5,-6.91,-7.57,-7.57,0,*5A
1517598185.89,19683,4.38,72030.3,-6.91,-7.57,-7.57,0,*5B
1517598187.17,19684,4.38,72028.0,-6.91,-7.61,-7.61,0,*5C
1517598188.39,19685,4.38,72032.8,-6.87,-7.53,-7.53,0,*5A
1517598189.67,19686,4.38,72036.8,-6.91,-7.61,-7.61,0,*5E
1517598190.95,19687,4.38,72052.5,-6.91,-7.61,-7.57,0,*5A
1517598192.23,19688,4.38,72058.3,-6.87,-7.65,-7.57,0,*56
1517598193.5,19689,4.38,72034.8,-6.91,-7.69,-7.69,0,*51
1517598194.78,19690,4.38,72042.0,-6.91,-7.69,-7.65,0,*55
1517598196.06,19691,4.38,72048.3,-6.91,-7.69,-7.73,0,*53
1517598197.33,19692,4.38,72046.0,-6.91,-7.69,-7.73,0,*50
1517598198.61,19693,4.38,72042.3,-6.91,-7.69,-7.69,0,*5A
1517598199.89,19694,4.38,72042.5,-6.91,-7.73,-7.69,0,*56
1517598201.17,19695,4.38,72054.5,-6.91,-7.73,-7.69,0,*57
1517598202.44,19696,4.38,72042.0,-6.91,-7.69,-7.69,0,*5F
1517598203.72,19697,4.38,72040.3,-6.91,-7.73,-7.69,0,*55
1517598204.99,19698,4.38,72040.8,-6.93,-7.77,-7.77,0,*53
1517598206.28,19699,4.38,72050.8,-6.91,-7.73,-7.73,0,*50
1517598207.56,19700,4.38,72048.0,-6.91,-7.73,-7.73,0,*51
1517598208.84,19701,4.38,72048.3,-6.91,-7.77,-7.73,0,*54
1517598210.12,19702,4.38,72048.0,-6.91,-7.77,-7.73,0,*57
1517598211.39,19703,4.38,72040.8,-6.91,-7.77,-7.77,0,*52
1517598212.67,19704,4.38,72048.8,-6.91,-7.77,-7.77,0,*55
1517598213.9,19705,4.38,72048.8,-6.93,-7.83,-7.83,0,*56
1517598215.12,19706,4.38,72056.5,-6.93,-7.83,-7.83,0,*55
1517598216.35,19707,4.38,72064.5,-6.93,-7.83,-7.83,0,*54
1517598217.6,19708,4.38,72082.3,-6.93,-7.91,-7.83,0,*58
1517598218.85,19709,4.38,72076.5,-6.93,-7.83,-7.91,0,*59
1517598220.09,19710,4.38,72078.8,-6.93,-7.83,-7.91,0,*51
1517598221.34,19711,4.38,72074.0,-6.93,-7.83,-7.91,0,*50
1517598222.56,19712,4.38,72066.3,-6.95,-7.83,-7.91,0,*55
1517598223.81,19713,4.38,72068.5,-6.93,-7.83,-7.91,0,*52
1517598225.08,19714,4.38,72082.5,-6.93,-7.91,-7.91,0,*56
1517598226.28,19715,4.38,72072.5,-6.95,-7.83,-7.83,0,*51
1517598227.51,19716,4.38,72088.5,-6.93,-7.83,-7.83,0,*54
1517598228.75,19717,4.38,72080.3,-6.95,-7.77,-7.77,0,*53
1517598230.03,19718,4.38,72070.8,-6.93,-7.73,-7.77,0,*5E
1517598231.29,19719,4.38,72066.8,-6.95,-7.73,-7.73,0,*5D
1517598232.57,19720,4.38,72074.5,-6.93,-7.73,-7.65,0,*56
1517598233.84,19721,4.38,72084.3,-6.93,-7.65,-7.65,0,*50
1517598235.12,19722,4.38,72082.5,-6.93,-7.65,-7.61,0,*57
1517598236.4,19723,4.38,72072.5,-6.93,-7.61,-7.61,0,*52
1517598237.68,19724,4.38,72066.0,-6.93,-7.61,-7.61,0,*55
1517598238.96,19725,4.38,72074.5,-6.93,-7.61,-7.61,0,*54
1517598240.17,19726,4.31,72074.3,-6.93,-7.53,-7.53,0,*57
1517598241.39,19727,4.31,72074.5,-6.93,-7.53,-7.53,0,*56
1517598242.61,19728,4.38,72072.0,-6.93,-7.53,-7.53,0,*59
1517598243.83,19729,4.38,72068.0,-6.93,-7.49,-7.49,0,*58
1517598245.07,19730,4.38,72066.0,-6.93,-7.39,-7.49,0,*57
1517598246.29,19731,4.38,72066.5,-6.93,-7.49,-7.49,0,*51
1517598247.51,19732,4.38,72064.3,-6.93,-7.53,-7.49,0,*59
1517598248.73,19733,4.38,72062.3,-6.93,-7.53,-7.49,0,*58
1517598249.95,19734,4.38,72060.5,-6.93,-7.53,-7.49,0,*5F
1517598251.17,19735,4.38,72062.8,-6.93,-7.49,-7.49,0,*55
1517598252.38,19736,4.38,72056.5,-6.93,-7.49,-7.49,0,*56
1517598253.6,19737,4.38,72056.3,-6.93,-7.49,-7.53,0,*5C
1517598254.79,19738,4.38,72054.8,-6.95,-7.53,-7.49,0,*55
1517598256.01,19739,4.38,72058.5,-6.93,-7.53,-7.53,0,*59
1517598257.26,19740,4.38,72052.8,-6.93,-7.61,-7.53,0,*56
1517598258.5,19741,4.38,72054.8,-6.93,-7.61,-7.53,0,*57
1517598259.72,19742,4.38,72052.0,-6.93,-7.49,-7.53,0,*5E
1517598260.93,19743,4.38,72052.0,-6.93,-7.53,-7.53,0,*54
1517598262.15,19744,4.38,72050.8,-6.93,-7.49,-7.49,0,*53
1517598263.37,19745,4.38,72046.0,-6.93,-7.53,-7.49,0,*59
1517598264.59,19746,4.38,72062.0,-6.93,-7.49,-7.49,0,*51
1517598265.81,19747,4.38,72066.8,-6.93,-7.49,-7.53,0,*5B
1517598267.02,19748,4.38,72066.8,-6.93,-7.53,-7.53,0,*5F
1517598268.24,19749,4.38,72070.0,-6.93,-7.53,-7.53,0,*5E
1517598269.49,19750,4.38,72062.0,-6.93,-7.61,-7.53,0,*57
1517598270.71,19751,4.38,72050.8,-6.95,-7.61,-7.53,0,*50
1517598271.92,19752,4.38,72062.8,-6.93,-7.53,-7.53,0,*54
1517598273.12,19753,4.38,72052.0,-6.95,-7.53,-7.53,0,*53
1517598274.39,19754,4.38,72042.3,-6.93,-7.65,-7.61,0,*56
1517598275.64,19755,4.38,72040.0,-6.93,-7.61,-7.53,0,*52
1517598276.89,19756,4.38,72042.5,-6.91,-7.49,-7.43,0,*58
1517598278.11,19757,4.38,72052.0,-6.91,-7.49,-7.49,0,*53
1517598279.4,19758,4.38,72060.3,-6.91,-7.57,-7.57,0,*5C
1517598280.68,19759,4.38,72052.5,-6.93,-7.61,-7.61,0,*5F
1517598281.92,19760,4.38,72046.3,-6.93,-7.61,-7.53,0,*54
1517598283.2,19761,4.38,72044.8,-6.91,-7.57,-7.57,0,*56
1517598284.46,19762,4.38,72044.3,-6.91,-7.49,-7.43,0,*5F
1517598285.68,19763,4.38,72044.0,-6.93,-7.49,-7.49,0,*56
1517598286.9,19764,4.38,72044.0,-6.93,-7.53,-7.49,0,*5A
1517598288.15,19765,4.38,72050.0,-6.91,-7.49,-7.43,0,*58
1517598289.43,19766,4.38,72064.0,-6.91,-7.43,-7.43,0,*51
1517598290.65,19767,4.38,72064.0,-6.91,-7.49,-7.49,0,*50
1517598291.88,19768,4.38,72058.8,-6.91,-7.49,-7.49,0,*5F
1517598293.13,19769,4.38,72052.3,-6.91,-7.49,-7.57,0,*51
1517598294.38,19770,4.38,72058.5,-6.91,-7.57,-7.49,0,*59
1517598295.6,19771,4.38,72048.0,-6.91,-7.49,-7.49,0,*57
1517598296.89,19772,4.38,72046.3,-6.91,-7.57,-7.61,0,*51
1517598298.15,19773,4.38,72048.0,-6.91,-7.57,-7.49,0,*5A
1517598299.43,19774,4.38,72054.3,-6.91,-7.61,-7.43,0,*52
1517598300.71,19775,4.38,72046.8,-6.91,-7.57,-7.57,0,*53
1517598302.0,19776,4.38,72040.3,-6.91,-7.57,-7.57,0,*50
1517598303.28,19777,4.38,72040.3,-6.87,-7.57,-7.57,0,*56
1517598304.56,19778,4.38,72042.5,-6.91,-7.57,-7.61,0,*5B
1517598305.85,19779,4.38,72044.0,-6.91,-7.61,-7.61,0,*5F
1517598307.13,19780,4.38,72044.0,-6.91,-7.73,-7.69,0,*52
1517598308.41,19781,4.38,72046.0,-6.91,-7.73,-7.73,0,*58
1517598309.68,19782,4.38,72044.8,-6.87,-7.69,-7.69,0,*5C
1517598310.96,19783,4.38,72054.5,-6.91,-7.69,-7.73,0,*51
1517598312.24,19784,4.38,72052.0,-6.91,-7.73,-7.69,0,*56
1517598313.52,19785,4.38,72056.8,-6.91,-7.73,-7.73,0,*5C
1517598314.8,19786,4.38,72062.5,-6.91,-7.69,-7.69,0,*5F
1517598316.07,19787,4.38,72054.0,-6.91,-7.69,-7.73,0,*55
1517598317.35,19788,4.38,72058.0,-6.93,-7.73,-7.73,0,*53
1517598318.61,19789,4.38,72052.5,-6.95,-7.73,-7.77,0,*50
1517598319.88,19790,4.38,72054.8,-6.93,-7.77,-7.73,0,*5E
1517598321.16,19791,4.38,72056.3,-6.93,-7.73,-7.77,0,*5F
1517598322.44,19792,4.38,72060.3,-6.93,-7.73,-7.73,0,*58
1517598323.69,19793,4.38,72064.0,-6.95,-7.77,-7.77,0,*5F
1517598324.97,19794,4.38,72066.8,-6.93,-7.73,-7.77,0,*5A
1517598326.24,19795,4.38,72068.8,-6.93,-7.77,-7.77,0,*5F
1517598327.52,19796,4.31,72082.5,-6.93,-7.73,-7.77,0,*58
1517598328.77,19797,4.38,72090.3,-6.95,-7.77,-7.73,0,*5F
1517598330.02,19798,4.38,72082.3,-6.95,-7.77,-7.73,0,*50
1517598331.29,19799,4.38,72078.3,-6.93,-7.65,-7.65,0,*53
1517598332.57,19800,4.38,72080.3,-6.93,-7.73,-7.73,0,*5C
1517598333.85,19801,4.38,72060.3,-6.93,-7.61,-7.61,0,*5D
1517598335.13,19802,4.38,72058.3,-6.93,-7.61,-7.65,0,*5A
1517598336.38,19803,4.38,72042.0,-6.93,-7.53,-7.61,0,*5E
1517598337.59,19804,4.38,72024.8,-6.93,-7.49,-7.53,0,*53
1517598338.81,19805,4.38,72020.8,-6.93,-7.53,-7.49,0,*52
1517598340.03,19806,4.38,72020.3,-6.93,-7.53,-7.53,0,*5A
1517598341.25,19807,4.38,72030.0,-6.93,-7.53,-7.49,0,*50
1517598342.47,19808,4.38,72020.8,-6.93,-7.49,-7.53,0,*5F
1517598343.68,19809,4.38,72024.8,-6.93,-7.53,-7.53,0,*55
1517598344.93,19810,4.38,72018.3,-6.93,-7.61,-7.53,0,*5C
1517598346.2,19811,4.38,72034.3,-6.93,-7.65,-7.65,0,*5C
1517598347.48,19812,4.38,72038.0,-6.93,-7.65,-7.73,0,*58
1517598348.76,19813,4.38,72046.0,-6.93,-7.73,-7.77,0,*5A
1517598350.04,19814,4.38,72040.3,-6.93,-7.73,-7.73,0,*59
1517598351.32,19815,4.38,72048.3,-6.93,-7.65,-7.73,0,*5F
1517598352.59,19816,4.38,72054.8,-6.91,-7.61,-7.69,0,*51
1517598353.87,19817,4.38,72050.0,-6.93,-7.73,-7.77,0,*5E
1517598355.15,19818,4.38,72050.8,-6.93,-7.73,-7.73,0,*55
1517598356.43,19819,4.38,72042.3,-6.93,-7.65,-7.73,0,*53
1517598357.68,19820,4.38,72036.3,-6.95,-7.65,-7.65,0,*58
1517598358.96,19821,4.38,72028.0,-6.93,-7.65,-7.61,0,*5B
1517598360.24,19822,4.38,72032.3,-6.93,-7.61,-7.61,0,*5C
1517598361.51,19823,4.38,72026.3,-6.93,-7.61,-7.65,0,*59
1517598362.76,19824,4.38,72020.5,-6.95,-7.65,-7.61,0,*58
1517598364.02,19825,4.38,72006.8,-6.95,-7.61,-7.61,0,*5D
1517598365.24,19826,4.38,72036.8,-6.95,-7.61,-7.53,0,*5F
1517598366.45,19827,4.38,72022.0,-6.95,-7.65,-7.53,0,*5A
1517598367.73,19828,4.38,72030.0,-6.93,-7.61,-7.61,0,*56
1517598369.01,19829,4.38,72032.5,-6.93,-7.61,-7.61,0,*57
1517598370.29,19830,4.38,72038.3,-6.93,-7.65,-7.65,0,*5F
1517598371.56,19831,4.38,72058.0,-6.93,-7.61,-7.65,0,*5A
1517598372.84,19832,4.38,72056.3,-6.93,-7.61,-7.65,0,*59
1517598374.11,19833,4.38,72058.3,-6.93,-7.65,-7.65,0,*5C
1517598375.39,19834,4.38,72056.5,-6.93,-7.61,-7.65,0,*5F
1517598376.67,19835,4.38,72060.0,-6.93,-7.65,-7.61,0,*5E
1517598377.94,19836,4.38,72064.3,-6.93,-7.65,-7.65,0,*59
1517598379.22,19837,4.38,72070.3,-6.93,-7.65,-7.65,0,*58
1517598380.49,19838,4.38,72076.3,-6.93,-7.61,-7.65,0,*53
1517598381.77,19839,4.38,72072.0,-6.93,-7.65,-7.65,0,*56
1517598383.02,19840,4.38,72068.5,-6.95,-7.61,-7.65,0,*5A
1517598384.3,19841,4.38,72066.0,-6.93,-7.65,-7.61,0,*5D
1517598385.58,19842,4.38,72072.0,-6.93,-7.65,-7.61,0,*5E
1517598386.86,19843,4.38,72068.5,-6.93,-7.65,-7.61,0,*5F
1517598388.11,19844,4.38,72060.0,-6.95,-7.61,-7.61,0,*5A
1517598389.38,19845,4.38,72064.3,-6.93,-7.65,-7.65,0,*5D
1517598390.66,19846,4.38,72070.8,-6.93,-7.65,-7.65,0,*5E
1517598391.91,19847,4.38,72066.8,-6.95,-7.65,-7.65,0,*59
1517598393.18,19848,4.38,72078.8,-6.93,-7.65,-7.65,0,*50
1517598394.43,19849,4.38,72076.3,-6.95,-7.77,-7.73,0,*53
1517598395.71,19850,4.38,72072.8,-6.93,-7.77,-7.73,0,*5D
1517598396.96,19851,4.38,72066.3,-6.95,-7.73,-7.77,0,*5A
1517598398.23,19852,4.38,72056.0,-6.93,-7.77,-7.77,0,*5B
1517598399.48,19853,4.38,72056.8,-6.95,-7.77,-7.73,0,*58
1517598400.73,19854,4.38,72054.3,-6.95,-7.77,-7.73,0,*5F
1517598402.01,19855,4.38,72050.8,-6.93,-7.73,-7.77,0,*58
1517598403.26,19856,4.38,72054.0,-6.95,-7.77,-7.77,0,*59
1517598404.51,19857,4.31,72060.8,-6.95,-7.73,-7.77,0,*5C
1517598405.78,19858,4.31,72062.8,-6.93,-7.77,-7.77,0,*51
1517598407.03,19859,4.38,72064.8,-6.95,-7.77,-7.73,0,*52
1517598408.28,19860,4.38,72062.8,-6.95,-7.77,-7.77,0,*5C
1517598409.53,19861,4.38,72066.5,-6.95,-7.77,-7.77,0,*5D
1517598410.81,19862,4.38,72064.8,-6.93,-7.73,-7.77,0,*5C
1517598412.08,19863,4.38,72068.5,-6.93,-7.77,-7.77,0,*59
1517598413.33,19864,4.38,72074.8,-6.95,-7.73,-7.77,0,*5C
1517598414.61,19865,4.38,72078.8,-6.93,-7.73,-7.77,0,*5B
1517598415.87,19866,4.38,72082.0,-6.95,-7.73,-7.77,0,*5E
1517598417.11,19867,4.38,72078.8,-6.95,-7.77,-7.73,0,*5F
1517598418.37,19868,4.38,72062.5,-6.95,-7.73,-7.73,0,*54
1517598419.62,19869,4.38,72054.5,-6.95,-7.73,-7.73,0,*55
1517598420.87,19870,4.38,72066.0,-6.95,-7.65,-7.61,0,*59
1517598422.12,19871,4.38,72062.3,-6.95,-7.65,-7.65,0,*5C
1517598423.38,19872,4.38,72066.8,-6.95,-7.61,-7.61,0,*5F
1517598424.57,19873,4.38,72056.3,-6.95,-7.53,-7.53,0,*5E
1517598425.76,19874,4.38,72066.0,-6.95,-7.53,-7.53,0,*59
1517598426.98,19875,4.38,72064.5,-6.93,-7.53,-7.49,0,*55
1517598428.17,19876,4.38,72054.5,-6.95,-7.53,-7.49,0,*50
1517598429.37,19877,4.31,72050.3,-6.95,-7.53,-7.53,0,*5A
1517598430.62,19878,4.38,72052.3,-6.95,-7.65,-7.65,0,*55
1517598431.87,19879,4.38,72052.0,-6.95,-7.61,-7.61,0,*54
1517598433.15,19880,4.31,72058.5,-6.93,-7.61,-7.61,0,*54
1517598434.36,19881,4.38,72058.8,-6.93,-7.53,-7.53,0,*55
1517598435.64,19882,4.38,72056.0,-6.93,-7.65,-7.61,0,*52
1517598436.9,19883,4.38,72054.5,-6.95,-7.61,-7.61,0,*51
1517598438.17,19884,4.38,72050.3,-6.93,-7.61,-7.61,0,*50
1517598439.45,19885,4.38,72044.0,-6.93,-7.61,-7.61,0,*51
1517598440.7,19886,4.38,72046.8,-6.93,-7.61,-7.53,0,*53
1517598441.98,19887,4.38,72050.0,-6.93,-7.61,-7.61,0,*53
1517598443.17,19888,4.38,72050.3,-6.95,-7.49,-7.53,0,*51
1517598444.38,19889,4.38,72050.3,-6.93,-7.49,-7.49,0,*5D
1517598445.58,19890,4.38,72056.5,-6.95,-7.53,-7.53,0,*53
1517598446.76,19891,4.31,72054.3,-6.95,-7.49,-7.53,0,*59
1517598447.98,19892,4.38,72064.3,-6.93,-7.49,-7.53,0,*5C
1517598449.17,19893,4.38,72070.0,-6.95,-7.49,-7.49,0,*50
1517598450.39,19894,4.38,72068.3,-6.93,-7.53,-7.49,0,*5A
1517598451.61,19895,4.38,72060.8,-6.93,-7.49,-7.49,0,*50
1517598452.83,19896,4.31,72058.5,-6.93,-7.49,-7.49,0,*53
1517598454.05,19897,4.31,72060.8,-6.93,-7.49,-7.49,0,*52
1517598455.27,19898,4.38,72062.5,-6.93,-7.49,-7.49,0,*5D
1517598456.46,19899,4.38,72064.5,-6.95,-7.49,-7.49,0,*5A
1517598457.65,19900,4.38,72062.5,-6.95,-7.53,-7.49,0,*50
1517598458.87,19901,4.38,72058.3,-6.93,-7.49,-7.49,0,*5C
1517598460.09,19902,4.38,72062.3,-6.93,-7.53,-7.49,0,*54
1517598461.31,19903,4.38,72058.0,-6.93,-7.49,-7.49,0,*5E
1517598462.53,19904,4.38,72056.3,-6.93,-7.53,-7.49,0,*52
1517598463.78,19905,4.38,72056.3,-6.93,-7.49,-7.39,0,*5F
1517598464.99,19906,4.38,72058.3,-6.93,-7.53,-7.53,0,*5B
1517598466.21,19907,4.38,72058.8,-6.93,-7.49,-7.49,0,*5A
1517598467.43,19908,4.31,72056.8,-6.93,-7.53,-7.53,0,*55
1517598468.64,19909,4.38,72062.0,-6.93,-7.49,-7.53,0,*5F
1517598469.86,19910,4.38,72062.0,-6.95,-7.61,-7.53,0,*5B
1517598471.08,19911,4.38,72066.3,-6.93,-7.49,-7.49,0,*5D
1517598472.3,19912,4.38,72066.8,-6.93,-7.53,-7.53,0,*5E
1517598473.58,19913,4.38,72068.3,-6.93,-7.61,-7.61,0,*5F
1517598474.82,19914,4.38,72062.8,-6.93,-7.61,-7.53,0,*59
1517598476.07,19915,4.38,72056.8,-6.93,-7.61,-7.53,0,*58
1517598477.28,19916,4.38,72048.3,-6.93,-7.49,-7.53,0,*51
1517598478.5,19917,4.38,72048.0,-6.93,-7.53,-7.53,0,*5B
1517598479.72,19918,4.38,72046.3,-6.93,-7.53,-7.49,0,*5F
1517598480.94,19919,4.38,72046.0,-6.93,-7.53,-7.49,0,*5E
1517598482.2,19920,4.38,72050.0,-6.91,-7.49,-7.43,0,*57
1517598483.42,19921,4.31,72044.8,-6.93,-7.53,-7.49,0,*55
1517598484.63,19922,4.31,72044.5,-6.93,-7.53,-7.53,0,*5D
1517598485.85,19923,4.38,72050.0,-6.95,-7.61,-7.53,0,*5B
1517598487.07,19924,4.31,72046.3,-6.95,-7.61,-7.53,0,*5C
1517598488.29,19925,4.38,72050.5,-6.93,-7.53,-7.53,0,*5A
1517598489.51,19926,4.38,72050.3,-6.93,-7.49,-7.53,0,*52
1517598490.78,19927,4.38,72044.3,-6.93,-7.61,-7.61,0,*58
1517598492.03,19928,4.31,72046.5,-6.93,-7.61,-7.53,0,*56
1517598493.27,19929,4.38,72050.0,-6.93,-7.61,-7.53,0,*57
1517598494.55,19930,4.38,72052.0,-6.93,-7.65,-7.61,0,*5A
1517598495.83,19931,4.38,72070.0,-6.93,-7.65,-7.65,0,*5F
1517598497.11,19932,4.31,72052.8,-6.93,-7.65,-7.61,0,*58
1517598498.38,19933,4.38,72058.5,-6.93,-7.61,-7.61,0,*5D
1517598499.66,19934,4.38,72052.3,-6.93,-7.65,-7.65,0,*5A
1517598500.94,19935,4.38,72042.8,-6.93,-7.65,-7.65,0,*5B
1517598502.19,19936,4.38,72046.5,-6.95,-7.65,-7.61,0,*5A
1517598503.47,19937,4.38,72048.5,-6.93,-7.73,-7.77,0,*5D
1517598504.75,19938,4.31,72046.0,-6.93,-7.73,-7.65,0,*51
1517598506.02,19939,4.38,72042.0,-6.93,-7.61,-7.73,0,*54
1517598507.3,19940,4.38,72052.5,-6.93,-7.65,-7.73,0,*5E
1517598508.55,19941,4.38,72056.5,-6.95,-7.73,-7.73,0,*5E
1517598509.83,19942,4.31,72054.8,-6.93,-7.77,-7.73,0,*5F
1517598511.1,19943,4.38,72060.8,-6.93,-7.77,-7.77,0,*5A
1517598512.37,19944,4.38,72068.0,-6.93,-7.77,-7.77,0,*5D
1517598513.65,19945,4.38,72066.8,-6.93,-7.77,-7.77,0,*5C
1517598514.92,19946,4.38,72056.0,-6.93,-7.77,-7.77,0,*5F
1517598516.19,19947,4.38,72064.5,-6.93,-7.77,-7.77,0,*5E
1517598517.44,19948,4.38,72082.0,-6.95,-7.77,-7.77,0,*57
1517598518.72,19949,4.38,72082.5,-6.93,-7.73,-7.77,0,*54
1517598519.97,19950,4.38,72068.8,-6.95,-7.77,-7.77,0,*5E
1517598521.25,19951,4.38,72060.8,-6.93,-7.73,-7.73,0,*59
1517598522.5,19952,4.38,72040.8,-6.95,-7.73,-7.65,0,*5B
1517598523.78,19953,4.38,72042.5,-6.93,-7.65,-7.65,0,*5B
1517598525.05,19954,4.38,72044.0,-6.93,-7.65,-7.73,0,*5B
1517598526.31,19955,4.38,72052.8,-6.95,-7.65,-7.61,0,*5F